Starlink 3330

operational
NORAD ID: 50836 Int'l Des: 2022-001 Owner: SPXS Country: US Constellation: starlink
LEOCIRCULAR

Starlink 3330について

説明を読み込み中...

リアルタイム位置

3D地球を読み込み中...

次回通過

高度履歴

Altitude vs Time

uPlot chart will show altitude changes over time

軌道要素

1 50836U 22001AK 26061.66288451 .00001476 00000-0 11079-3 0 9991
2 50836 53.2175 210.4445 0000821 76.9478 283.1606 15.08841311229101
Epoch: Mar 2, 2026 • Age: 32 hours

現在のステータス

高度 555.4 km
速度 7.58 km/s
衛星直下点 -44.97°S, 114.56°W
打ち上げ日 Jan 6, 2022
運用期間 4.1 years
タイプ internet

技術仕様

分類 Payload
質量 297.00 kg
乾燥質量 275.00 kg
総質量 297.00 kg
長さ 0.20 m
直径 2.80 m
スパン 9.00 m
形状 Box + pan
製造者 SPXS
バスタイプ Starlink
フェーズステータス In Orbit
所有者/国 SPXS/US

大規模コンステレーション

Loading constellations...